Hourly Weather Otrishky

Today, 29 July, Thursday

Time Temperature Precipitation Wind Pressure Humidity
00:00 +22°C° 0 mm 4 mps 745 mmHg 58%
01:00 +22°C° 0 mm 4 mps 745 mmHg 59%
02:00 +22°C° 0 mm 4 mps 745 mmHg 60%
03:00 +22°C° 0 mm 4 mps 745 mmHg 63%
04:00 +21°C° 0 mm 3 mps 745 mmHg 66%
05:00 +21°C° 0 mm 3 mps 744 mmHg 69%
06:00 +24°C° 0 mm 3 mps 744 mmHg 64%
07:00 +26°C° 0 mm 4 mps 744 mmHg 58%
08:00 +28°C° 0 mm 4 mps 745 mmHg 53%
09:00 +29°C° 0 mm 4 mps 744 mmHg 49%
10:00 +32°C° 0 mm 4 mps 744 mmHg 46%
11:00 +33°C° 0 mm 4 mps 744 mmHg 43%
12:00 +34°C° 0 mm 4 mps 744 mmHg 41%
13:00 +34°C° 0 mm 4 mps 743 mmHg 40%
14:00 +35°C° 0 mm 4 mps 743 mmHg 38%
15:00 +34°C° 0.1 mm 4 mps 743 mmHg 42%
16:00 +33°C° 0.1 mm 5 mps 743 mmHg 45%
17:00 +32°C° 0.1 mm 5 mps 742 mmHg 49%
18:00 +28°C° 0.8 mm 4 mps 743 mmHg 62%
19:00 +25°C° 0.8 mm 3 mps 743 mmHg 75%
20:00 +21°C° 0.8 mm 2 mps 743 mmHg 88%
21:00 +21°C° 0.1 mm 2 mps 743 mmHg 88%
22:00 +21°C° 0.1 mm 2 mps 743 mmHg 87%
23:00 +21°C° 0.1 mm 2 mps 742 mmHg 87%

Tomorrow, 30 July, Friday

Time Temperature Precipitation Wind Pressure Humidity
00:00 +21°C° 0.1 mm 2 mps 742 mmHg 88%
01:00 +20°C° 0.1 mm 2 mps 742 mmHg 88%
02:00 +20°C° 0.1 mm 2 mps 742 mmHg 89%
03:00 +20°C° 0.3 mm 2 mps 742 mmHg 89%
04:00 +20°C° 0.3 mm 2 mps 742 mmHg 89%
05:00 +20°C° 0.3 mm 2 mps 742 mmHg 90%
06:00 +23°C° 0 mm 2 mps 742 mmHg 83%
07:00 +25°C° 0 mm 3 mps 742 mmHg 76%
08:00 +26°C° 0 mm 4 mps 742 mmHg 70%
09:00 +28°C° 0 mm 4 mps 742 mmHg 63%
10:00 +29°C° 0 mm 4 mps 742 mmHg 57%
11:00 +32°C° 0 mm 4 mps 742 mmHg 51%
12:00 +33°C° 0 mm 4 mps 742 mmHg 49%
13:00 +33°C° 0 mm 4 mps 742 mmHg 46%
14:00 +34°C° 0 mm 4 mps 741 mmHg 44%
15:00 +34°C° 0 mm 4 mps 741 mmHg 45%
16:00 +33°C° 0 mm 4 mps 741 mmHg 46%
17:00 +33°C° 0 mm 4 mps 741 mmHg 47%
18:00 +29°C° 1.1 mm 4 mps 741 mmHg 59%
19:00 +25°C° 1.1 mm 3 mps 741 mmHg 70%
20:00 +21°C° 1.1 mm 3 mps 741 mmHg 82%
21:00 +21°C° 0.7 mm 3 mps 741 mmHg 85%
22:00 +20°C° 0.7 mm 2 mps 741 mmHg 87%
23:00 +21°C° 0.7 mm 1 mps 742 mmHg 90%

Day after tomorrow, 31 July, Saturday

Time Temperature Precipitation Wind Pressure Humidity
00:00 +21°C° 0.1 mm 1 mps 741 mmHg 91%
01:00 +21°C° 0.1 mm 1 mps 741 mmHg 92%
02:00 +21°C° 0.1 mm 1 mps 741 mmHg 92%
03:00 +21°C° 0 mm 1 mps 742 mmHg 93%
04:00 +20°C° 0 mm 2 mps 742 mmHg 93%
05:00 +20°C° 0 mm 2 mps 742 mmHg 93%
06:00 +23°C° 0 mm 2 mps 742 mmHg 86%
07:00 +24°C° 0 mm 3 mps 742 mmHg 79%
08:00 +26°C° 0 mm 3 mps 743 mmHg 72%
09:00 +27°C° 0 mm 3 mps 743 mmHg 66%
10:00 +29°C° 0 mm 3 mps 743 mmHg 60%
11:00 +30°C° 0 mm 3 mps 743 mmHg 54%
12:00 +30°C° 0.2 mm 3 mps 743 mmHg 52%
13:00 +32°C° 0.2 mm 4 mps 743 mmHg 50%
14:00 +32°C° 0.2 mm 4 mps 743 mmHg 48%
15:00 +31°C° 0 mm 3 mps 743 mmHg 49%
16:00 +30°C° 0 mm 3 mps 743 mmHg 51%
17:00 +30°C° 0 mm 3 mps 743 mmHg 52%
18:00 +29°C° 0 mm 3 mps 743 mmHg 54%
19:00 +28°C° 0 mm 2 mps 743 mmHg 55%
20:00 +27°C° 0 mm 2 mps 743 mmHg 57%
21:00 +26°C° 0 mm 2 mps 743 mmHg 59%
22:00 +25°C° 0 mm 2 mps 743 mmHg 61%
23:00 +25°C° 0 mm 2 mps 743 mmHg 63%

1 August, Sunday

Time Temperature Precipitation Wind Pressure Humidity
00:00 +24°C° 0 mm 2 mps 743 mmHg 64%
01:00 +24°C° 0 mm 2 mps 743 mmHg 66%
02:00 +24°C° 0 mm 2 mps 743 mmHg 67%
03:00 +24°C° 0 mm 2 mps 743 mmHg 68%
04:00 +24°C° 0 mm 2 mps 743 mmHg 70%
05:00 +23°C° 0 mm 2 mps 743 mmHg 71%
06:00 +25°C° 0 mm 2 mps 743 mmHg 66%
07:00 +27°C° 0 mm 2 mps 743 mmHg 62%
08:00 +28°C° 0 mm 2 mps 743 mmHg 57%
09:00 +30°C° 0 mm 2 mps 743 mmHg 53%
10:00 +31°C° 0 mm 1 mps 743 mmHg 48%
11:00 +33°C° 0 mm 1 mps 743 mmHg 43%
12:00 +33°C° 0 mm 1 mps 743 mmHg 41%
13:00 +33°C° 0 mm 1 mps 743 mmHg 40%
14:00 +34°C° 0 mm 1 mps 743 mmHg 38%
15:00 +34°C° 0 mm 2 mps 743 mmHg 40%
16:00 +34°C° 0 mm 2 mps 742 mmHg 41%
17:00 +34°C° 0 mm 3 mps 742 mmHg 43%
18:00 +31°C° 0 mm 2 mps 742 mmHg 46%
19:00 +29°C° 0 mm 2 mps 743 mmHg 50%
20:00 +28°C° 0 mm 2 mps 743 mmHg 54%
21:00 +27°C° 0 mm 2 mps 742 mmHg 55%
22:00 +27°C° 0 mm 2 mps 742 mmHg 56%
23:00 +26°C° 0 mm 2 mps 742 mmHg 57%

2 August, Monday

Time Temperature Precipitation Wind Pressure Humidity
00:00 +26°C° 0 mm 1 mps 742 mmHg 58%
01:00 +25°C° 0 mm 1 mps 742 mmHg 59%
02:00 +25°C° 0 mm 1 mps 742 mmHg 60%
03:00 +25°C° 0 mm 1 mps 742 mmHg 61%
04:00 +25°C° 0 mm 1 mps 742 mmHg 62%
05:00 +25°C° 0 mm 1 mps 742 mmHg 62%
06:00 +27°C° 0 mm 1 mps 742 mmHg 57%
07:00 +29°C° 0 mm 1 mps 742 mmHg 52%
08:00 +30°C° 0 mm 1 mps 742 mmHg 47%
09:00 +32°C° 0 mm 1 mps 742 mmHg 43%
10:00 +33°C° 0 mm 1 mps 742 mmHg 39%
11:00 +35°C° 0 mm 1 mps 742 mmHg 35%
12:00 +35°C° 0 mm 1 mps 742 mmHg 32%
13:00 +37°C° 0 mm 2 mps 742 mmHg 30%
14:00 +37°C° 0 mm 3 mps 741 mmHg 28%
15:00 +37°C° 0 mm 2 mps 741 mmHg 29%
16:00 +37°C° 0 mm 2 mps 741 mmHg 31%
17:00 +36°C° 0 mm 2 mps 741 mmHg 33%
18:00 +34°C° 0 mm 2 mps 741 mmHg 37%
19:00 +31°C° 0 mm 2 mps 741 mmHg 41%
20:00 +29°C° 0 mm 2 mps 741 mmHg 45%
21:00 +28°C° 0.1 mm 3 mps 741 mmHg 49%
22:00 +27°C° 0.1 mm 4 mps 741 mmHg 53%
23:00 +26°C° 0.1 mm 5 mps 742 mmHg 57%

3 August, Tuesday

Time Temperature Precipitation Wind Pressure Humidity
00:00 +25°C° 0.1 mm 5 mps 742 mmHg 63%
01:00 +25°C° 0.1 mm 5 mps 742 mmHg 69%
02:00 +23°C° 0.1 mm 4 mps 742 mmHg 75%
03:00 +23°C° 0.1 mm 4 mps 742 mmHg 77%
04:00 +22°C° 0.1 mm 4 mps 742 mmHg 79%
05:00 +22°C° 0.1 mm 3 mps 742 mmHg 82%
06:00 +24°C° 0.1 mm 3 mps 742 mmHg 76%
07:00 +25°C° 0.1 mm 3 mps 743 mmHg 70%
08:00 +27°C° 0.1 mm 3 mps 743 mmHg 64%
09:00 +27°C° 0 mm 4 mps 743 mmHg 61%
10:00 +27°C° 0 mm 4 mps 744 mmHg 59%
11:00 +28°C° 0 mm 4 mps 744 mmHg 56%
12:00 +28°C° 0 mm 4 mps 744 mmHg 56%
13:00 +28°C° 0 mm 3 mps 744 mmHg 56%
14:00 +27°C° 0 mm 3 mps 744 mmHg 56%
15:00 +27°C° 0 mm 3 mps 744 mmHg 57%
16:00 +27°C° 0 mm 3 mps 743 mmHg 58%
17:00 +27°C° 0 mm 3 mps 743 mmHg 59%
18:00 +26°C° 0 mm 3 mps 743 mmHg 62%
19:00 +25°C° 0 mm 3 mps 744 mmHg 64%
20:00 +24°C° 0 mm 3 mps 744 mmHg 67%
21:00 +22°C° 0 mm 3 mps 744 mmHg 66%
22:00 +23°C° 0 mm 2 mps 744 mmHg 65%
23:00 +21°C° 0 mm 2 mps 744 mmHg 65%
Show more